sat.trackr.live / text

‹ back to catalog

IRIDIUM 125

NORAD 42964 · 2017-061K

PAYLOAD ACTIVE UNKNOWN

§ Identity

Operator
Country
US
Launch date
2017-10-09
Launch site
AFWTR
Launch vehicle
Mass (kg)
RCS (m²)

Purposes: comms

External: N2YO · Heavens-Above · Gunter

§ Orbital elements

Epoch: 2026-09-20T04:51:06.776064Z

Period
100.40 min
Inclination
86.4029°
Eccentricity
0.0002595
Mean motion
14.34217800 rev/d
Perigee alt
775.8 km
Apogee alt
779.5 km
Semi-major
7,155.8 km
B*
-1.9915e-6
RAAN
345.6835°
Arg perigee
86.2930°
Mean anomaly
273.8563°
Rev number
46,847

§ Raw data

IRIDIUM 1251 42964U 17061K   26263.20216176  .00000014  00000+0 -19915-5 0  99992 42964  86.4029 345.6835 0002595  86.2930 273.8563 14.34217800468472

JSON: /api/v1/satellites/42964 · /tle

For live sub-satellite position, see the globe view (requires WebGL).

§ Visibility from observer

Set your observer location to see the next 7 days of passes ≥ 10°. The values pass through the URL so the page stays shareable.

No JS? Fill the form by hand. The geolocation button needs JavaScript.